Location: Ariel
(45.9570°N, 122.5700°W)
Time: 12:19:48
(UTC-07:00)

Transit 2A Rocket - Pass Details

Date: 21 July 2019
Orbit: 590 x 913 km, 66.7° (Epoch: 16 August)

Event Time Altitude Azimuth Distance (km) Brightness Sun altitude
Exits shadow 03:17:29 16° 161° (SSE) 2,183 7.0 -18.1°
Maximum altitude 03:21:16 30° 111° (ESE) 1,539 6.6 -17.8°
Drops below altitude 10° 03:26:09 10° 53° (NE) 2,467 8.7 -17.4°
Sets 03:28:48 0° 42° (NE) 3,357 10.0 -17.1°
